[[{"header":{"parameterUnit":"m.s-1","parameterCategory":2,"la1":30.2991,"la2":30.254,"lo1":-89.0895,"lo2":-89.0444,"dy":0.0017,"dx":0.0017,"nx":28,"ny":28,"refTime":"2026-02-26T09:00:00:Z","depth":"0","parameterNumber":2,"parameterNumberName":"U-component_of_CURRENTS"},"data":[0,0,0,0,0,0,0,0,0,0,0,0,0,0,0,0,0,0,0,0,0,0,0,0,0,0,0,0,0,0,0,0,0,0,0,0,0,0,0,0,0,0,0,0,0,0,0,0,0,0,0,0,0,0,0,0,0,0,0.3283,0.3284,0,0.3326,0.3326,0.3326,0.3322,0.3322,0.3322,0.3322,0.3292,0.3291,0.3291,0,0,0,0,0,0,0,0,0,0,0,0,0,0.3214,0.3214,0.3283,0.3284,0.3285,0.3326,0.3326,0.3326,0.3322,0.3322,0.3322,0.3321,0.3292,0.3291,0.3291,0,0,0,0,0,0,0,0,0,0,0,0,0,0.3245,0.3215,0.3283,0.3291,0.3293,0.3326,0.3326,0.3326,0.3322,0.3322,0.3322,0.3321,0.3292,0.3291,0.329,0.3293,0,0,0.3288,0.3288,0,0,0,0,0,0,0,0,0.3243,0.3247,0.3289,0.3291,0.3293,0.3322,0.3291,0.3313,0.3322,0.3306,0.3322,0.3321,0.3298,0.3297,0.3301,0.3292,0.329,0.3288,0.3287,0.3287,0.3287,0,0,0,0,0,0,0,0.3241,0.3245,0.3296,0.329,0.3292,0.3299,0.3302,0.3295,0.3299,0.3308,0.3309,0.3321,0.3298,0.3302,0.33,0.329,0.3288,0.3287,0.3287,0.3286,0.3313,0.3314,0,0,0,0,0,0,0.3244,0.3243,0.3294,0.3297,0.3271,0.33,0.3304,0.331,0.3301,0.3301,0.3321,0.332,0.3303,0.3301,0.3299,0.3346,0.3287,0.3286,0.3286,0.3312,0.3313,0.3315,0,0,0,0,0,0,0.3242,0.3248,0.3293,0.3275,0.3282,0.3302,0.3309,0.3311,0.3321,0.3313,0.331,0.333,0.3303,0.33,0.3304,0.3343,0.3286,0.3285,0.331,0.3312,0.3314,0.3411,0,0,0,0,0,0,0.324,0.3247,0.325,0.3275,0.3283,0.3324,0.3309,0.3312,0.3331,0.333,0.332,0.3316,0.3302,0.3305,0.3303,0.334,0.3284,0.3309,0.3311,0.3313,0.3406,0.3416,0.3424,0,0,0,0,0,0.3237,0.3244,0.325,0.3256,0.3287,0.3325,0.333,0.334,0.3332,0.3345,0.3335,0.3317,0.3318,0.3305,0.3302,0.3341,0.3308,0.3311,0.3313,0.3402,0.3414,0.3424,0,0,0,0,0,0,0.3209,0.3246,0.3252,0.3268,0.3301,0.3326,0.3339,0.3346,0.335,0.3345,0.3328,0.3325,0.3347,0.3324,0.3311,0.3354,0.3312,0.3314,0.338,0.3391,0.34,0.3421,0.3284,0,0,0,0,0,0.3208,0.3225,0.3263,0.3276,0.3294,0.3317,0.3332,0.3344,0.3355,0.3357,0.3353,0.3347,0.3356,0.3356,0.3355,0.3373,0.3391,0.3396,0.3405,0.3413,0.3427,0.3483,0.3499,0.3324,0.3323,0.3323,0,0,0.3199,0.3224,0.3231,0.3272,0.3294,0.333,0.3324,0.3355,0.3388,0.3351,0.3382,0.3378,0.3367,0.3395,0.3403,0.3381,0.3477,0.3416,0.3423,0.3433,0.3488,0.3505,0.3521,0.3325,0.3325,0.3325,0,0,0.3203,0.3216,0.3238,0.327,0.3317,0.3339,0.3352,0.3388,0.3406,0.3436,0.3426,0.3448,0.3445,0.3463,0.3467,0.3521,0.3523,0.3516,0.3579,0.3634,0.3649,0.3663,0.3734,0.3753,0.3519,0.3519,0.3519,0,0.3196,0.3226,0.3251,0.3288,0.3319,0.3347,0.3385,0.3414,0.3447,0.3472,0.3454,0.3497,0.3486,0.3543,0.3564,0.3546,0.3578,0.3541,0.3648,0.3662,0.3675,0.3743,0.3763,0.3524,0.3524,0.3523,0.3523,0,0.3222,0.325,0.3268,0.3326,0.3362,0.3398,0.345,0.3484,0.3505,0.3537,0.3597,0.3598,0.3626,0.3631,0.3614,0.3701,0.3698,0.3657,0.3627,0.3699,0.3766,0.3785,0.3531,0.353,0.3528,0.3527,0,0,0.3193,0.3273,0.3277,0.3308,0.3385,0.3413,0.3482,0.3554,0.3595,0.364,0.3702,0.374,0.3751,0.3757,0.3752,0.3799,0.3921,0.3771,0.3771,0.3853,0.4067,0.407,0.4091,0.3901,0.3904,0.3907,0.4088,0,0.3208,0.3272,0.3315,0.3376,0.3414,0.3471,0.353,0.3597,0.3649,0.3713,0.3761,0.3805,0.3798,0.3811,0.3871,0.3899,0.3972,0.3877,0.3974,0.3978,0.3982,0.4113,0.3936,0.4083,0.4107,0.411,0.4112,0,0.3215,0.3261,0.3322,0.3403,0.3425,0.3463,0.3557,0.3614,0.3721,0.3761,0.3842,0.3877,0.3978,0.3935,0.4085,0.4026,0.4066,0.4089,0.4095,0.4078,0.4017,0.4008,0.4117,0.3994,0.4141,0.4139,0.4137,0,0.3173,0.3259,0.3305,0.3333,0.3433,0.3466,0.3517,0.3621,0.3691,0.379,0.3868,0.3966,0.4042,0.4108,0.4203,0.4142,0.4363,0.4273,0.4329,0.433,0.4188,0.4171,0.4195,0.4389,0.4388,0.4388,0.4387,0,0.3167,0.3199,0.328,0.3302,0.3356,0.3429,0.3504,0.3566,0.3688,0.3782,0.3888,0.3989,0.4091,0.4234,0.4264,0.4401,0.443,0.4388,0.4392,0.4219,0.4203,0.4093,0.4035,0.4394,0.4393,0.4392,0.439,0,0.3113,0.317,0.322,0.331,0.3336,0.3366,0.3493,0.3549,0.3679,0.3811,0.3855,0.4053,0.4234,0.4372,0.4498,0.4507,0.4472,0.4626,0.4437,0.4415,0.4294,0.4248,0.4167,0.4037,0.4694,0.4695,0.4696,0,0.3092,0.3112,0.3201,0.3227,0.3263,0.333,0.338,0.3509,0.3583,0.3842,0.3899,0.4148,0.4291,0.4547,0.4599,0.4716,0.4555,0.4607,0.4446,0.4317,0.4267,0.4084,0.3964,0.4305,0.4303,0.4301,0.43,0,0.3046,0.3075,0.3114,0.3174,0.3217,0.3278,0.3358,0.3425,0.3594,0.3742,0.3917,0.4055,0.4339,0.4391,0.46,0.4621,0.4366,0.4575,0.4472,0.4018,0.3786,0.3651,0.4176,0.4284,0.4286,0.4287,0.4288,0.4288,0.3001,0.3016,0.3069,0.3119,0.316,0.3202,0.3226,0.3335,0.3456,0.3641,0.3817,0.3985,0.417,0.4425,0.4433,0.4344,0.4301,0.4183,0.4161,0.4006,0.3797,0.4322,0.4407,0.441,0.4411,0.4413,0.4415,0,0.2968,0.2991,0.3018,0.3063,0.3067,0.3121,0.3193,0.321,0.33,0.35,0.3646,0.383,0.3935,0.4054,0.4071,0.3929,0.3712,0.3823,0.3485,0.3404,0.3905,0.3802,0.3721,0.3721,0.3721,0.3721,0.3721,0.3721,0.2953,0.2968,0.2983,0.2965,0.298,0.2954,0.2973,0.3011,0.3117,0.3234,0.3327,0.346,0.3693,0.3828,0.3704,0.3605,0.3288,0.3172,0.3164,0.3487,0.3515,0.3542,0.343,0.3272,0.3272,0.247,0.2465,0.246]},{"header":{"parameterUnit":"m.s-1","parameterCategory":2,"la1":30.2991,"la2":30.254,"lo1":-89.0895,"lo2":-89.0444,"dy":0.0017,"dx":0.0017,"nx":28,"ny":28,"refTime":"2026-02-26T09:00:00:Z","depth":"0","parameterNumber":3,"parameterNumberName":"V-component_of_CURRENTS"},"data":[0,0,0,0,0,0,0,0,0,0,0,0,0,0,0,0,0,0,0,0,0,0,0,0,0,0,0,0,0,0,0,0,0,0,0,0,0,0,0,0,0,0,0,0,0,0,0,0,0,0,0,0,0,0,0,0,0,0,-0.0305,-0.0305,0,-0.0378,-0.0379,-0.038,-0.0432,-0.0433,-0.0433,-0.0433,-0.0532,-0.0534,-0.0537,0,0,0,0,0,0,0,0,0,0,0,0,0,-0.0275,-0.0275,-0.0305,-0.0305,-0.0306,-0.0378,-0.0379,-0.038,-0.0432,-0.0433,-0.0433,-0.0433,-0.0531,-0.0534,-0.0537,0,0,0,0,0,0,0,0,0,0,0,0,0,-0.0313,-0.0275,-0.0304,-0.034,-0.0344,-0.0377,-0.0379,-0.038,-0.0432,-0.0433,-0.0433,-0.0434,-0.053,-0.0534,-0.0537,-0.0549,0,0,-0.0548,-0.0549,0,0,0,0,0,0,0,0,-0.031,-0.0314,-0.0334,-0.0338,-0.0342,-0.0395,-0.0405,-0.0438,-0.0432,-0.04,-0.0433,-0.0434,-0.0488,-0.0495,-0.0509,-0.0554,-0.0558,-0.0548,-0.055,-0.0552,-0.0553,0,0,0,0,0,0,0,-0.0308,-0.0311,-0.0335,-0.0335,-0.034,-0.0375,-0.038,-0.0411,-0.0442,-0.0403,-0.0406,-0.0413,-0.049,-0.0505,-0.0511,-0.0559,-0.0548,-0.0551,-0.0553,-0.0555,-0.0636,-0.0636,0,0,0,0,0,0,-0.0292,-0.0308,-0.0332,-0.0337,-0.0326,-0.0374,-0.0381,-0.0379,-0.0441,-0.045,-0.0412,-0.0415,-0.0499,-0.0507,-0.0515,-0.054,-0.0552,-0.0555,-0.0557,-0.0636,-0.0636,-0.0636,0,0,0,0,0,0,-0.0291,-0.0293,-0.0329,-0.0324,-0.0331,-0.0374,-0.0372,-0.038,-0.0394,-0.0447,-0.0458,-0.0417,-0.05,-0.051,-0.0539,-0.0544,-0.0557,-0.056,-0.0636,-0.0636,-0.0636,-0.0586,0,0,0,0,0,0,-0.029,-0.0292,-0.0286,-0.0322,-0.0331,-0.0341,-0.0371,-0.0381,-0.0396,-0.0401,-0.0455,-0.0465,-0.0501,-0.0533,-0.0542,-0.0549,-0.0562,-0.0636,-0.0636,-0.0636,-0.0587,-0.0584,-0.0582,0,0,0,0,0,-0.0288,-0.0275,-0.0285,-0.0288,-0.032,-0.034,-0.0347,-0.0381,-0.0396,-0.0396,-0.0434,-0.0463,-0.0541,-0.0535,-0.0546,-0.0555,-0.0635,-0.0636,-0.0636,-0.0589,-0.0585,-0.0582,0,0,0,0,0,0,-0.0257,-0.028,-0.0292,-0.0285,-0.0307,-0.0348,-0.0352,-0.0374,-0.0405,-0.0408,-0.046,-0.0472,-0.0501,-0.0532,-0.0525,-0.0579,-0.0594,-0.0597,-0.0555,-0.0552,-0.0549,-0.0528,-0.0565,0,0,0,0,0,-0.0246,-0.0244,-0.0271,-0.0267,-0.0273,-0.0311,-0.0323,-0.0343,-0.0375,-0.0389,-0.0429,-0.0472,-0.051,-0.0532,-0.0567,-0.0593,-0.0602,-0.0607,-0.0604,-0.0601,-0.0591,-0.0618,-0.0616,-0.0636,-0.0636,-0.0636,0,0,-0.0235,-0.0245,-0.0245,-0.026,-0.028,-0.0281,-0.032,-0.033,-0.0336,-0.0394,-0.0416,-0.0459,-0.0513,-0.0544,-0.056,-0.0571,-0.0595,-0.0601,-0.0598,-0.059,-0.0618,-0.0616,-0.0614,-0.0636,-0.0636,-0.0636,0,0,-0.0205,-0.0216,-0.0202,-0.0214,-0.0233,-0.0256,-0.0254,-0.029,-0.0312,-0.0335,-0.0383,-0.0423,-0.0479,-0.0522,-0.0551,-0.0551,-0.0576,-0.0568,-0.0541,-0.0567,-0.0565,-0.0564,-0.0548,-0.0546,-0.057,-0.057,-0.057,0,-0.0192,-0.0175,-0.0202,-0.0191,-0.0194,-0.0238,-0.0223,-0.0252,-0.0295,-0.0307,-0.0332,-0.0418,-0.0468,-0.0511,-0.052,-0.0544,-0.0548,-0.0549,-0.0562,-0.0561,-0.056,-0.0545,-0.0543,-0.0568,-0.0568,-0.0568,-0.0568,0,-0.0148,-0.0139,-0.0132,-0.0131,-0.0137,-0.0133,-0.0168,-0.0181,-0.0214,-0.0248,-0.0292,-0.0365,-0.0411,-0.0447,-0.0488,-0.0517,-0.0514,-0.055,-0.0566,-0.0555,-0.0539,-0.0538,-0.0564,-0.0565,-0.0566,-0.0566,0,0,-0.0109,-0.0103,-0.0099,-0.0084,-0.0103,-0.0098,-0.0108,-0.0127,-0.012,-0.0191,-0.019,-0.0294,-0.0333,-0.0368,-0.0432,-0.0475,-0.0479,-0.051,-0.0513,-0.0485,-0.0503,-0.0453,-0.0447,-0.0519,-0.052,-0.052,-0.0484,0,-0.0068,-0.0025,-0.0039,-0.0003,0.0017,-0.0018,-0.0017,-0.004,-0.0074,-0.0086,-0.018,-0.0211,-0.0304,-0.0323,-0.0381,-0.0445,-0.0478,-0.0483,-0.0527,-0.0527,-0.0477,-0.0446,-0.0424,-0.0387,-0.0483,-0.0483,-0.0483,0,-0.0017,0.0005,0.0049,0.0075,0.0081,0.0093,0.0104,0.0097,0.0059,0.0033,-0.0024,-0.0087,-0.0157,-0.0238,-0.0344,-0.034,-0.0415,-0.0478,-0.0479,-0.0449,-0.0476,-0.0421,-0.0382,-0.0588,-0.0481,-0.0481,-0.0481,0,0.0038,0.007,0.011,0.0117,0.0132,0.0148,0.0155,0.0134,0.0157,0.011,0.014,0.0023,0.0007,-0.0123,-0.0243,-0.0295,-0.0335,-0.042,-0.0445,-0.0441,-0.0438,-0.0433,-0.0596,-0.0497,-0.0497,-0.0497,-0.0497,0,0.009,0.0123,0.0142,0.0165,0.0228,0.0213,0.0273,0.0257,0.0271,0.0345,0.0211,0.0257,0.0033,-0.0015,-0.0171,-0.0263,-0.0272,-0.0418,-0.0429,-0.0417,-0.041,-0.0603,-0.0726,-0.0496,-0.0496,-0.0496,-0.0497,0,0.0141,0.0147,0.0201,0.0234,0.0255,0.0299,0.037,0.0423,0.0416,0.052,0.0521,0.0449,0.04,0.0214,0.0039,-0.0127,-0.0351,-0.0293,-0.0235,-0.0241,-0.0487,-0.0606,-0.0744,-0.0823,-0.0328,-0.0326,-0.0325,0,0.0171,0.0203,0.0263,0.0319,0.0338,0.0408,0.0473,0.0485,0.0569,0.0668,0.0747,0.0718,0.0763,0.0539,0.0232,0.0007,-0.0236,-0.0171,-0.0293,-0.0475,-0.0618,-0.0717,-0.0782,-0.0262,-0.0261,-0.026,-0.0258,0,0.0239,0.0254,0.0307,0.0419,0.0497,0.0595,0.0699,0.0794,0.0865,0.0993,0.1159,0.1205,0.0999,0.0784,0.0438,0.0226,-0.0311,-0.0151,-0.0376,-0.0599,-0.0681,-0.0769,-0.0289,-0.0247,-0.0248,-0.0249,-0.0249,-0.025,0.0297,0.0353,0.0434,0.0542,0.0646,0.08,0.0916,0.1073,0.1268,0.1519,0.1512,0.1675,0.1263,0.0806,0.0475,-0.016,-0.019,-0.0384,-0.0512,-0.0594,-0.0686,-0.0145,-0.0099,-0.0099,-0.01,-0.01,-0.01,0,0.0386,0.0457,0.0566,0.071,0.0854,0.088,0.1091,0.1244,0.1535,0.1797,0.199,0.1932,0.1432,0.0841,-0.0006,-0.0454,-0.0669,-0.0718,-0.0906,-0.0957,-0.0505,-0.0521,-0.0518,-0.0518,-0.0518,-0.0518,-0.0517,-0.0517,0.0444,0.0563,0.0618,0.0869,0.0985,0.1194,0.1328,0.1574,0.1799,0.2168,0.2332,0.2411,0.194,0.0396,-0.0642,-0.0882,-0.1239,-0.1283,-0.1449,-0.1211,-0.1192,-0.1174,-0.1221,-0.1364,-0.1365,-0.1855,-0.186,-0.1864]}],[{"header":{"parameterUnit":"m.s-1","parameterCategory":2,"la1":30.2991,"la2":30.254,"lo1":-89.0895,"lo2":-89.0444,"dy":0.0017,"dx":0.0017,"nx":28,"ny":28,"refTime":"2026-02-26T09:00:00:Z","depth":"2","parameterNumber":2,"parameterNumberName":"U-component_of_CURRENTS"},"data":[0,0,0,0,0,0,0,0,0,0,0,0,0,0,0,0,0,0,0,0,0,0,0,0,0,0,0,0,0,0,0,0,0,0,0,0,0,0,0,0,0,0,0,0,0,0,0,0,0,0,0,0,0,0,0,0,0,0,0.26,0.2601,0,0.2624,0.2624,0.2623,0.2611,0.2611,0.2611,0.2611,0.2632,0.2632,0.2633,0,0,0,0,0,0,0,0,0,0,0,0,0,0.2526,0.2526,0.26,0.2601,0.2602,0.2624,0.2624,0.2623,0.2611,0.2611,0.2611,0.2612,0.2632,0.2632,0.2633,0,0,0,0,0,0,0,0,0,0,0,0,0,0.2546,0.2527,0.26,0.2605,0.2607,0.2624,0.2624,0.2623,0.2611,0.2611,0.2611,0.2612,0.2632,0.2632,0.2633,0.2632,0,0,0.2635,0.2635,0,0,0,0,0,0,0,0,0.2545,0.2548,0.2603,0.2605,0.2607,0.2622,0.2606,0.2629,0.2611,0.26,0.2611,0.2612,0.2634,0.2634,0.2626,0.2633,0.2634,0.2635,0.2635,0.2635,0.2636,0,0,0,0,0,0,0,0.2544,0.2547,0.2601,0.2605,0.2607,0.2601,0.2603,0.2609,0.2609,0.2601,0.2602,0.2619,0.2634,0.2625,0.2627,0.2634,0.2635,0.2635,0.2636,0.2636,0.2708,0.2709,0,0,0,0,0,0,0.2559,0.2546,0.26,0.2602,0.2586,0.2603,0.2605,0.261,0.2609,0.2611,0.2619,0.2618,0.2624,0.2626,0.2627,0.2694,0.2635,0.2636,0.2636,0.2706,0.2708,0.271,0,0,0,0,0,0,0.2557,0.2563,0.2599,0.2582,0.2587,0.2605,0.261,0.2611,0.2617,0.2624,0.2624,0.2628,0.2625,0.2627,0.2656,0.2692,0.2636,0.2637,0.2705,0.2707,0.2709,0.2785,0,0,0,0,0,0,0.2554,0.2562,0.2572,0.2583,0.2589,0.262,0.2611,0.2611,0.2631,0.263,0.2632,0.2633,0.2625,0.2655,0.2657,0.2692,0.2637,0.2703,0.2706,0.2708,0.278,0.2789,0.2797,0,0,0,0,0,0.2551,0.2565,0.2571,0.2579,0.2601,0.2622,0.2623,0.2631,0.2631,0.2636,0.2647,0.2633,0.2675,0.2657,0.2658,0.2695,0.2701,0.2705,0.2708,0.2776,0.2787,0.2797,0,0,0,0,0,0,0.2538,0.2567,0.2573,0.2595,0.2614,0.2623,0.2635,0.2641,0.265,0.2658,0.2651,0.2653,0.2694,0.2683,0.2664,0.2724,0.2687,0.2691,0.2738,0.2748,0.2757,0.276,0.2638,0,0,0,0,0,0.2542,0.2557,0.2584,0.2601,0.2614,0.2626,0.2637,0.2648,0.2662,0.2666,0.267,0.2682,0.2706,0.2718,0.2728,0.2759,0.2768,0.2784,0.2793,0.28,0.2804,0.2856,0.2869,0.2721,0.2721,0.2721,0,0,0.254,0.2562,0.2569,0.26,0.2612,0.2635,0.263,0.2659,0.2688,0.2669,0.2702,0.2711,0.2721,0.276,0.2777,0.2758,0.2849,0.2804,0.2811,0.281,0.2861,0.2875,0.2888,0.2724,0.2723,0.2723,0,0,0.2548,0.2565,0.2581,0.2603,0.2643,0.2653,0.2667,0.269,0.2709,0.2748,0.2748,0.2784,0.2803,0.2824,0.2837,0.2898,0.2892,0.29,0.2947,0.2998,0.3011,0.3022,0.3062,0.3077,0.2905,0.2905,0.2905,0,0.2545,0.2571,0.2589,0.2619,0.2644,0.2664,0.2693,0.2717,0.2749,0.2774,0.2772,0.2831,0.2839,0.2899,0.2923,0.2919,0.294,0.2908,0.301,0.3021,0.3031,0.307,0.3085,0.2909,0.2909,0.2908,0.2908,0,0.2566,0.2594,0.2608,0.2647,0.2676,0.2704,0.275,0.2782,0.281,0.2834,0.2901,0.2922,0.2961,0.2972,0.2968,0.3046,0.3035,0.3016,0.2985,0.3051,0.3087,0.3101,0.2915,0.2913,0.2912,0.2911,0,0,0.2537,0.2606,0.2612,0.2638,0.2698,0.2719,0.2784,0.2838,0.2888,0.2926,0.2991,0.3039,0.3055,0.3072,0.308,0.3118,0.3215,0.3101,0.3102,0.3143,0.3328,0.3274,0.3283,0.3215,0.3218,0.322,0.3329,0,0.2545,0.2596,0.2637,0.2686,0.2713,0.2767,0.282,0.2881,0.294,0.3005,0.3052,0.3111,0.3095,0.313,0.3173,0.3203,0.3253,0.3187,0.3256,0.3258,0.3203,0.3298,0.3043,0.3114,0.3342,0.3344,0.3346,0,0.255,0.2586,0.2632,0.2709,0.2727,0.2763,0.2859,0.2917,0.3019,0.3073,0.3149,0.3185,0.3266,0.3239,0.3341,0.33,0.3328,0.334,0.3345,0.3275,0.323,0.3082,0.313,0.3369,0.3367,0.3365,0.3364,0,0.251,0.2584,0.2617,0.2642,0.2729,0.277,0.2824,0.2928,0.2996,0.3123,0.3189,0.3277,0.3346,0.3391,0.3439,0.3401,0.3539,0.3489,0.3466,0.3462,0.3247,0.322,0.3569,0.3568,0.3568,0.3568,0.3568,0,0.2497,0.2522,0.26,0.2617,0.2669,0.2749,0.2831,0.2906,0.3033,0.311,0.322,0.3299,0.3389,0.3475,0.3488,0.3536,0.3592,0.3498,0.3498,0.3267,0.3242,0.3452,0.3437,0.3572,0.3571,0.357,0.357,0,0.244,0.2489,0.2524,0.2613,0.2648,0.2682,0.282,0.288,0.3018,0.3133,0.3179,0.3346,0.3458,0.354,0.3632,0.3606,0.3644,0.3644,0.3369,0.3333,0.3516,0.3504,0.3624,0.3623,0.3623,0.3622,0.3622,0,0.2412,0.2426,0.2503,0.2526,0.2563,0.2643,0.2699,0.2847,0.2919,0.314,0.3178,0.3357,0.3443,0.3585,0.3591,0.3635,0.3674,0.3402,0.3278,0.354,0.3528,0.3517,0.3506,0.3027,0.3021,0.3017,0.3014,0,0.2357,0.2379,0.2409,0.2459,0.2507,0.2569,0.2665,0.2714,0.2887,0.2987,0.3124,0.3219,0.3398,0.334,0.3429,0.3401,0.337,0.3315,0.3683,0.3052,0.2986,0.2971,0.2978,0.2975,0.2979,0.2982,0.2984,0.2985,0.2306,0.2314,0.2358,0.2394,0.2438,0.2475,0.2491,0.2592,0.2674,0.2789,0.2955,0.3019,0.3114,0.3117,0.3051,0.301,0.3222,0.306,0.307,0.3085,0.2996,0.2932,0.2895,0.2898,0.2901,0.2903,0.2906,0,0.2261,0.2286,0.2306,0.2335,0.2326,0.24,0.2451,0.2425,0.2452,0.2595,0.2692,0.2548,0.2565,0.2653,0.2546,0.2565,0.2498,0.2447,0.233,0.2373,0.241,0.2282,0.1994,0.1991,0.1987,0.1984,0,0,0.2245,0.2237,0.2247,0.2211,0.224,0.2209,0.2208,0.2152,0.2195,0.2182,0.2215,0.246,0.2589,0.2254,0.2234,0.209,0.2199,0.201,0.2753,0.2659,0.2691,0.2793,0.265,0,0,0,0,0]},{"header":{"parameterUnit":"m.s-1","parameterCategory":2,"la1":30.2991,"la2":30.254,"lo1":-89.0895,"lo2":-89.0444,"dy":0.0017,"dx":0.0017,"nx":28,"ny":28,"refTime":"2026-02-26T09:00:00:Z","depth":"2","parameterNumber":3,"parameterNumberName":"V-component_of_CURRENTS"},"data":[0,0,0,0,0,0,0,0,0,0,0,0,0,0,0,0,0,0,0,0,0,0,0,0,0,0,0,0,0,0,0,0,0,0,0,0,0,0,0,0,0,0,0,0,0,0,0,0,0,0,0,0,0,0,0,0,0,0,0.0132,0.0132,0,0.0083,0.0083,0.0082,0.0046,0.0046,0.0046,0.0045,-0.0044,-0.0046,-0.0048,0,0,0,0,0,0,0,0,0,0,0,0,0,0.0145,0.0145,0.0132,0.0132,0.0131,0.0083,0.0083,0.0082,0.0046,0.0046,0.0046,0.0045,-0.0043,-0.0046,-0.0048,0,0,0,0,0,0,0,0,0,0,0,0,0,0.0122,0.0145,0.0132,0.0107,0.0105,0.0084,0.0083,0.0082,0.0046,0.0046,0.0045,0.0045,-0.0042,-0.0045,-0.0049,-0.0059,0,0,-0.0058,-0.0059,0,0,0,0,0,0,0,0,0.0124,0.0122,0.0112,0.0109,0.0106,0.007,0.0054,0.0033,0.0046,0.0069,0.0045,0.0045,-0.0009,-0.0015,-0.0023,-0.0063,-0.0067,-0.0058,-0.006,-0.0062,-0.0062,0,0,0,0,0,0,0,0.0125,0.0123,0.0113,0.0111,0.0108,0.0082,0.0078,0.005,0.0032,0.0067,0.0064,0.0059,-0.0011,-0.0019,-0.0025,-0.0068,-0.0058,-0.0061,-0.0063,-0.0064,-0.0133,-0.0133,0,0,0,0,0,0,0.0135,0.0125,0.0114,0.0111,0.0114,0.0082,0.0078,0.0082,0.0033,0.0026,0.0059,0.0057,-0.0014,-0.0021,-0.0028,-0.004,-0.0062,-0.0064,-0.0066,-0.0133,-0.0133,-0.0133,0,0,0,0,0,0,0.0135,0.0135,0.0116,0.0116,0.0112,0.0083,0.0087,0.0082,0.0074,0.0028,0.0019,0.0057,-0.0014,-0.0024,-0.0051,-0.0044,-0.0066,-0.0069,-0.0133,-0.0133,-0.0133,-0.0066,0,0,0,0,0,0,0.0136,0.0135,0.0139,0.0118,0.0113,0.0113,0.0087,0.0081,0.0071,0.0068,0.0024,0.0015,-0.0016,-0.0046,-0.0054,-0.0049,-0.0071,-0.0133,-0.0133,-0.0133,-0.0068,-0.0063,-0.0059,0,0,0,0,0,0.0137,0.0151,0.014,0.0138,0.012,0.0114,0.011,0.0086,0.0072,0.0076,0.0041,0.0016,-0.0051,-0.0048,-0.0058,-0.0053,-0.0133,-0.0133,-0.0133,-0.007,-0.0064,-0.0059,0,0,0,0,0,0,0.0158,0.0148,0.0136,0.0146,0.0133,0.0108,0.0108,0.0091,0.0068,0.0062,0.0018,0.0007,-0.0015,-0.0044,-0.004,-0.0074,-0.0097,-0.0099,-0.0046,-0.0041,-0.0037,-0.0008,-0.0074,0,0,0,0,0,0.0165,0.0174,0.0156,0.0163,0.016,0.0134,0.0127,0.0112,0.0089,0.0078,0.0046,0.0009,-0.0022,-0.0038,-0.007,-0.0086,-0.0114,-0.0091,-0.0087,-0.0083,-0.0067,-0.0108,-0.0106,-0.0133,-0.0133,-0.0133,0,0,0.0174,0.017,0.0173,0.0168,0.0155,0.0165,0.0129,0.0125,0.013,0.0071,0.0065,0.0023,-0.0023,-0.0042,-0.0055,-0.0065,-0.0091,-0.0083,-0.0079,-0.0064,-0.0108,-0.0105,-0.0103,-0.0133,-0.0133,-0.0133,0,0,0.0205,0.0195,0.0214,0.021,0.0198,0.0185,0.0188,0.0166,0.0153,0.0137,0.0096,0.0063,0.0017,-0.0012,-0.0034,-0.0025,-0.0067,-0.004,0.0007,-0.0034,-0.0032,-0.003,-0.0062,-0.0064,-0.0037,-0.0037,-0.0037,0,0.0215,0.024,0.0217,0.0236,0.024,0.0201,0.0225,0.0208,0.0178,0.0173,0.0143,0.0078,0.0034,0.0016,0.0015,-0.0013,-0.0041,-0.0007,-0.0027,-0.0026,-0.0025,-0.0059,-0.0061,-0.0033,-0.0034,-0.0034,-0.0034,0,0.0262,0.028,0.0291,0.0305,0.0305,0.0319,0.0296,0.029,0.0263,0.0242,0.0213,0.0147,0.0111,0.0086,0.0052,0.0037,0.0014,-0.0016,-0.0035,-0.0018,-0.0055,-0.0059,-0.0029,-0.003,-0.0031,-0.0032,0,0,0.0294,0.0322,0.0326,0.035,0.0346,0.0356,0.0361,0.0362,0.0373,0.0319,0.0326,0.0254,0.0213,0.0186,0.0132,0.0094,0.0064,0.0047,0.0043,0.0026,-0.002,-0.0045,-0.0052,0.0028,0.0028,0.0028,-0.0046,0,0.034,0.0399,0.0394,0.0448,0.0479,0.0452,0.0467,0.0455,0.0428,0.0422,0.0347,0.0324,0.0253,0.0232,0.0183,0.0098,0.0056,0.0087,-0.0042,-0.0045,-0.0061,-0.0057,-0.0035,-0.01,-0.0051,-0.0051,-0.0052,0,0.039,0.0427,0.049,0.0535,0.0545,0.0564,0.0585,0.0592,0.0564,0.0541,0.0497,0.0436,0.0377,0.0307,0.0175,0.0198,0.01,0.0026,0.002,-0.0025,-0.0077,-0.011,-0.011,-0.0059,-0.0059,-0.0058,-0.0058,0,0.0438,0.0495,0.0552,0.0566,0.0604,0.0623,0.0638,0.0627,0.0654,0.0615,0.0628,0.0529,0.0495,0.036,0.0201,0.0186,0.0055,0.001,-0.0104,-0.0107,-0.0124,-0.0127,-0.0084,-0.0084,-0.0084,-0.0084,-0.0084,0,0.0495,0.0541,0.058,0.0613,0.0686,0.0681,0.0745,0.0738,0.075,0.0802,0.0695,0.0707,0.0506,0.0405,0.0241,0.0065,0.0079,-0.0087,-0.0127,-0.0101,-0.0101,-0.0095,-0.0095,-0.0087,-0.0086,-0.0085,-0.0085,0,0.0537,0.0562,0.0637,0.0691,0.0712,0.0761,0.0833,0.0881,0.0874,0.0938,0.0934,0.0845,0.0708,0.0505,0.0288,0.0133,-0.0047,-0.0117,-0.0068,-0.01,-0.0192,-0.0188,-0.025,-0.0252,-0.0253,-0.0254,-0.0255,0,0.0566,0.0608,0.0696,0.0749,0.0776,0.0851,0.091,0.0937,0.0999,0.1032,0.1074,0.0964,0.0903,0.0575,0.0273,-0.0015,-0.0051,-0.0185,-0.0217,-0.0177,-0.0209,-0.0203,-0.0197,-0.0215,-0.0216,-0.0216,-0.0216,0,0.0622,0.0648,0.071,0.0822,0.0898,0.0999,0.1083,0.1156,0.1204,0.1252,0.1291,0.1242,0.094,0.0643,0.0243,0.0045,-0.014,-0.0202,-0.0174,-0.0174,-0.0149,-0.0179,-0.0174,-0.022,-0.0219,-0.0219,-0.0219,-0.0219,0.0658,0.0714,0.0794,0.0901,0.0998,0.1126,0.1226,0.1316,0.1424,0.1505,0.145,0.1385,0.1051,0.0537,0.0192,-0.0169,-0.0159,-0.0287,-0.0284,-0.028,-0.026,-0.0239,-0.0322,-0.0322,-0.0323,-0.0323,-0.0323,0,0.0705,0.0767,0.0869,0.1003,0.1119,0.1166,0.1331,0.1423,0.1555,0.1609,0.1626,0.1306,0.0969,0.0595,0.0059,-0.0264,-0.0288,-0.0363,-0.0318,-0.0312,-0.0308,-0.0288,-0.0359,-0.036,-0.036,-0.0361,0,0,0.0731,0.0826,0.0881,0.1073,0.1177,0.1349,0.1455,0.1566,0.164,0.1682,0.1646,0.1556,0.1091,0.0703,0.0259,-0.0045,-0.0102,-0.0109,-0.0048,0.0063,0.0072,-0.0236,-0.0196,0,0,0,0,0]}],[{"header":{"parameterUnit":"m.s-1","parameterCategory":2,"la1":30.2991,"la2":30.254,"lo1":-89.0895,"lo2":-89.0444,"dy":0.0017,"dx":0.0017,"nx":28,"ny":28,"refTime":"2026-02-26T09:00:00:Z","depth":"4","parameterNumber":2,"parameterNumberName":"U-component_of_CURRENTS"},"data":[0,0,0,0,0,0,0,0,0,0,0,0,0,0,0,0,0,0,0,0,0,0,0,0,0,0,0,0,0,0,0,0,0,0,0,0,0,0,0,0,0,0,0,0,0,0,0,0,0,0,0,0,0,0,0,0,0,0,0.1599,0.1599,0,0.1654,0.1654,0.1655,0.1705,0.1706,0.1707,0.1707,0.1785,0.1787,0.1788,0,0,0,0,0,0,0,0,0,0,0,0,0,0.1528,0.1529,0.1599,0.1599,0.16,0.1653,0.1654,0.1655,0.1705,0.1706,0.1707,0.1708,0.1785,0.1787,0.1788,0,0,0,0,0,0,0,0,0,0,0,0,0,0.1568,0.153,0.1599,0.1632,0.1636,0.1653,0.1654,0.1655,0.1705,0.1706,0.1707,0.1708,0.1784,0.1787,0.1789,0.1781,0,0,0.1795,0.1796,0,0,0,0,0,0,0,0,0.1566,0.157,0.1627,0.163,0.1634,0.1674,0.1658,0.1699,0.1705,0.1678,0.1707,0.1709,0.175,0.1755,0.1762,0.1785,0.1788,0.1795,0.1797,0.1798,0.1798,0,0,0,0,0,0,0,0.1563,0.1568,0.162,0.1627,0.1632,0.1642,0.1648,0.1666,0.1708,0.1681,0.1685,0.1691,0.1752,0.176,0.1764,0.1789,0.1795,0.1797,0.1799,0.1799,0.1913,0.1915,0,0,0,0,0,0,0.1557,0.1566,0.1618,0.1621,0.1603,0.1642,0.165,0.166,0.1707,0.1715,0.169,0.1694,0.1755,0.1762,0.1767,0.1852,0.1798,0.18,0.1801,0.1911,0.1913,0.1915,0,0,0,0,0,0,0.1555,0.1561,0.1616,0.1595,0.1603,0.1642,0.1653,0.166,0.1702,0.1714,0.1723,0.1729,0.1756,0.1764,0.1819,0.1852,0.1801,0.1803,0.1909,0.1912,0.1914,0.1964,0,0,0,0,0,0,0.1553,0.156,0.1582,0.1595,0.1604,0.1648,0.1653,0.1661,0.1703,0.1709,0.175,0.1756,0.1758,0.1816,0.1822,0.1854,0.1804,0.1907,0.191,0.1914,0.1961,0.1968,0.1975,0,0,0,0,0,0.155,0.1566,0.1583,0.159,0.1627,0.1649,0.1655,0.1685,0.1704,0.1726,0.1762,0.1757,0.184,0.182,0.1825,0.1859,0.1906,0.191,0.1913,0.1957,0.1967,0.1975,0,0,0,0,0,0,0.1547,0.1573,0.1592,0.1617,0.1644,0.1658,0.1686,0.1704,0.1748,0.1768,0.1779,0.1788,0.185,0.1849,0.1825,0.1903,0.1872,0.1877,0.1904,0.1913,0.192,0.1918,0.1806,0,0,0,0,0,0.1556,0.1581,0.1603,0.1629,0.1645,0.1673,0.1693,0.1715,0.1746,0.1768,0.1797,0.1831,0.1863,0.1885,0.1912,0.1951,0.196,0.1977,0.1985,0.1991,0.1995,0.2042,0.2054,0.1928,0.1928,0.1928,0,0,0.1562,0.1582,0.1597,0.1632,0.1657,0.1682,0.1689,0.173,0.1761,0.1769,0.1834,0.1863,0.1882,0.1932,0.1958,0.1939,0.2033,0.1996,0.2001,0.2001,0.2048,0.206,0.2071,0.1931,0.193,0.193,0,0,0.1572,0.1607,0.1627,0.1654,0.1699,0.1714,0.1733,0.1771,0.1805,0.1859,0.1879,0.1929,0.1975,0.1996,0.2009,0.2072,0.2074,0.2086,0.2118,0.2165,0.2175,0.2185,0.2216,0.2228,0.2085,0.2085,0.2085,0,0.1581,0.1608,0.1638,0.1665,0.1691,0.1731,0.1758,0.1792,0.1848,0.1881,0.1892,0.1985,0.2002,0.2058,0.2082,0.2088,0.2113,0.2081,0.2174,0.2183,0.2192,0.2222,0.2234,0.2088,0.2087,0.2087,0.2087,0,0.1596,0.1632,0.1649,0.1696,0.1729,0.1762,0.1806,0.1857,0.1903,0.1935,0.202,0.2051,0.2106,0.212,0.2121,0.2194,0.2193,0.2181,0.2148,0.2207,0.2235,0.2247,0.2092,0.2091,0.209,0.2089,0,0,0.157,0.1644,0.1653,0.1683,0.1751,0.1773,0.184,0.19,0.1955,0.2017,0.2084,0.2142,0.2176,0.2194,0.221,0.2245,0.2328,0.2245,0.2246,0.227,0.2435,0.2289,0.2288,0.234,0.2343,0.2345,0.243,0,0.1573,0.1621,0.1661,0.1717,0.1745,0.1811,0.1865,0.1933,0.2001,0.2079,0.213,0.2206,0.2198,0.2245,0.228,0.2325,0.2362,0.2305,0.2378,0.238,0.2239,0.2297,0.2352,0.2439,0.2442,0.2444,0.2445,0,0.1565,0.1602,0.1653,0.1732,0.1752,0.1799,0.1903,0.196,0.2073,0.2132,0.2217,0.2268,0.235,0.2331,0.243,0.2401,0.2426,0.2444,0.2448,0.23,0.2256,0.2368,0.2466,0.2465,0.2463,0.2462,0.246,0,0.1515,0.1592,0.1634,0.1662,0.1757,0.1809,0.1872,0.1984,0.2052,0.2185,0.2257,0.2347,0.2422,0.2467,0.2517,0.2493,0.2611,0.2578,0.2465,0.2456,0.2538,0.2527,0.2642,0.2642,0.2642,0.2642,0.2641,0,0.1482,0.1521,0.1623,0.1645,0.171,0.1794,0.1885,0.1966,0.2099,0.2177,0.2291,0.2364,0.2467,0.2543,0.2556,0.2549,0.265,0.2479,0.247,0.2558,0.2548,0.2547,0.2534,0.2645,0.2644,0.2643,0.2643,0,0.1416,0.1483,0.1537,0.1647,0.1688,0.174,0.1889,0.195,0.2096,0.2208,0.2262,0.2419,0.2511,0.2585,0.2669,0.2595,0.2604,0.2576,0.2678,0.2672,0.2405,0.2395,0.2447,0.2442,0.2439,0.2436,0.2433,0,0.1382,0.1404,0.1524,0.156,0.1617,0.1714,0.1775,0.193,0.1999,0.2214,0.2249,0.2413,0.2491,0.2496,0.2579,0.2596,0.2564,0.2547,0.2451,0.24,0.2387,0.2383,0.2378,0.2427,0.2426,0.2425,0.2424,0,0.1315,0.1374,0.142,0.1495,0.1565,0.163,0.1736,0.1778,0.1951,0.2103,0.2189,0.2251,0.2351,0.2404,0.2446,0.2448,0.2541,0.2507,0.2513,0.2423,0.2377,0.2367,0.2366,0.2411,0.2413,0.2414,0.2415,0,0.1273,0.1286,0.1359,0.1413,0.149,0.1522,0.1591,0.1672,0.1764,0.1992,0.2015,0.2182,0.2326,0.233,0.2366,0.2362,0.2314,0.2219,0.2239,0.2254,0.215,0.206,0.1997,0,0,0,0,0,0.1222,0.1227,0.127,0.1315,0.1382,0.1432,0.155,0.1624,0.1792,0.1799,0.1904,0.1984,0.2057,0.2148,0.2104,0.2278,0.232,0.2216,0.2219,0.234,0.2355,0.2249,0,0,0,0,0,0,0.1185,0.1224,0.1237,0.1225,0.1235,0.1297,0.1368,0.1479,0.1494,0.1672,0.1724,0.1858,0.1959,0.2059,0.2064,0.2089,0.2048,0.232,0.2315,0.2332,0.2345,0.2357,0.2253,0,0,0,0,0]},{"header":{"parameterUnit":"m.s-1","parameterCategory":2,"la1":30.2991,"la2":30.254,"lo1":-89.0895,"lo2":-89.0444,"dy":0.0017,"dx":0.0017,"nx":28,"ny":28,"refTime":"2026-02-26T09:00:00:Z","depth":"4","parameterNumber":3,"parameterNumberName":"V-component_of_CURRENTS"},"data":[0,0,0,0,0,0,0,0,0,0,0,0,0,0,0,0,0,0,0,0,0,0,0,0,0,0,0,0,0,0,0,0,0,0,0,0,0,0,0,0,0,0,0,0,0,0,0,0,0,0,0,0,0,0,0,0,0,0,0.0177,0.0177,0,0.0148,0.0148,0.0147,0.0126,0.0126,0.0126,0.0126,0.007,0.0068,0.0067,0,0,0,0,0,0,0,0,0,0,0,0,0,0.0175,0.0175,0.0177,0.0177,0.0176,0.0148,0.0148,0.0147,0.0126,0.0126,0.0126,0.0126,0.007,0.0068,0.0067,0,0,0,0,0,0,0,0,0,0,0,0,0,0.0163,0.0176,0.0177,0.0163,0.0162,0.0148,0.0148,0.0147,0.0126,0.0126,0.0126,0.0126,0.0071,0.0069,0.0066,0.0056,0,0,0.006,0.0059,0,0,0,0,0,0,0,0,0.0164,0.0163,0.0165,0.0164,0.0163,0.0142,0.0127,0.0116,0.0126,0.0139,0.0126,0.0126,0.0092,0.0088,0.0082,0.0053,0.0051,0.006,0.0058,0.0058,0.0057,0,0,0,0,0,0,0,0.0165,0.0164,0.0164,0.0165,0.0163,0.0146,0.0144,0.0124,0.0115,0.0138,0.0136,0.0135,0.0091,0.0084,0.008,0.005,0.006,0.0058,0.0057,0.0056,0.0014,0.0014,0,0,0,0,0,0,0.0173,0.0165,0.0165,0.0164,0.0164,0.0146,0.0144,0.0148,0.0116,0.0111,0.0135,0.0134,0.0088,0.0083,0.0078,0.0081,0.0058,0.0056,0.0054,0.0014,0.0014,0.0014,0,0,0,0,0,0,0.0173,0.0173,0.0166,0.0164,0.0162,0.0147,0.015,0.0147,0.0144,0.0114,0.0109,0.0136,0.0087,0.0081,0.0068,0.0078,0.0055,0.0053,0.0014,0.0014,0.0014,0.0076,0,0,0,0,0,0,0.0173,0.0174,0.0179,0.0165,0.0163,0.0167,0.015,0.0147,0.0144,0.0142,0.0113,0.0108,0.0087,0.0071,0.0066,0.0075,0.0051,0.0013,0.0014,0.0014,0.0073,0.0078,0.0082,0,0,0,0,0,0.0173,0.0186,0.0179,0.0179,0.017,0.0168,0.0165,0.0152,0.0144,0.0148,0.0128,0.0109,0.0069,0.007,0.0063,0.0072,0.0013,0.0014,0.0014,0.0072,0.0077,0.0082,0,0,0,0,0,0,0.0188,0.0185,0.0177,0.0188,0.018,0.0165,0.0167,0.0157,0.0144,0.0142,0.0112,0.0106,0.0096,0.0074,0.0076,0.0059,0.0037,0.0036,0.0083,0.0088,0.0092,0.0109,0.0049,0,0,0,0,0,0.0194,0.0203,0.0192,0.02,0.0199,0.0183,0.018,0.0172,0.0159,0.0153,0.0133,0.011,0.0092,0.0083,0.0062,0.0055,0.0023,0.0055,0.0059,0.0063,0.0071,0.0029,0.0031,0.0015,0.0015,0.0015,0,0,0.0201,0.0201,0.0205,0.0204,0.0197,0.0206,0.0181,0.0182,0.019,0.0148,0.0151,0.0124,0.0092,0.0085,0.0079,0.007,0.0049,0.0063,0.0067,0.0073,0.003,0.0031,0.0033,0.0016,0.0016,0.0016,0,0,0.0225,0.0221,0.0237,0.0236,0.0232,0.0224,0.0228,0.0215,0.021,0.0205,0.0178,0.016,0.0132,0.0115,0.0101,0.0115,0.0072,0.0105,0.0143,0.0103,0.0104,0.0104,0.0062,0.0058,0.0109,0.011,0.011,0,0.0233,0.0254,0.024,0.0256,0.0263,0.0238,0.0259,0.0249,0.0234,0.0232,0.0215,0.0174,0.0148,0.014,0.0146,0.0126,0.0093,0.0129,0.0109,0.0109,0.0108,0.0065,0.006,0.0113,0.0112,0.0112,0.0112,0,0.0269,0.0286,0.0297,0.0311,0.0314,0.0328,0.0317,0.0317,0.0304,0.029,0.0276,0.0235,0.0213,0.0198,0.0177,0.0165,0.0139,0.0119,0.01,0.0114,0.0066,0.006,0.0117,0.0116,0.0115,0.0114,0,0,0.0289,0.0318,0.0322,0.0344,0.0348,0.0358,0.037,0.0375,0.0386,0.0354,0.0361,0.0321,0.0292,0.0275,0.024,0.0206,0.0171,0.0167,0.0164,0.0132,0.0078,0.0056,0.0046,0.0146,0.0145,0.0145,0.0045,0,0.0323,0.0372,0.0374,0.0421,0.0446,0.0434,0.0451,0.0448,0.0433,0.043,0.0381,0.037,0.0324,0.0314,0.0273,0.0198,0.0158,0.02,0.0063,0.0059,0.0043,0.004,0.0143,0.004,0.0038,0.0037,0.0036,0,0.0357,0.0389,0.0443,0.0487,0.0496,0.0519,0.0543,0.0555,0.0536,0.0523,0.0494,0.045,0.0404,0.036,0.0237,0.0264,0.018,0.0115,0.0109,0.0065,0.0026,0.0021,0.0025,0.0026,0.0026,0.0027,0.0028,0,0.0383,0.0437,0.0487,0.0501,0.0541,0.0565,0.0586,0.0583,0.0605,0.0584,0.0586,0.0513,0.0482,0.037,0.0233,0.0233,0.0086,0.0067,-0.0033,-0.0037,-0.0013,-0.0013,-0.0021,-0.0021,-0.0021,-0.002,-0.002,0,0.0418,0.0459,0.0507,0.0535,0.0599,0.0608,0.0667,0.0668,0.0682,0.0708,0.0641,0.0629,0.0482,0.0378,0.0249,0.0087,0.0094,-0.0027,-0.0063,0.0014,0.0018,-0.0018,-0.0017,-0.0024,-0.0023,-0.0023,-0.0022,0,0.0435,0.0467,0.0531,0.059,0.0614,0.066,0.0734,0.077,0.0772,0.0801,0.08,0.0714,0.0572,0.0411,0.022,0.0114,-0.0041,-0.0101,-0.0009,-0.0037,-0.0142,-0.0136,-0.022,-0.0221,-0.0222,-0.0224,-0.0225,0,0.0448,0.0482,0.057,0.0616,0.0648,0.0722,0.0774,0.0812,0.0849,0.0847,0.0858,0.0742,0.0659,0.038,0.0202,-0.0052,-0.0088,-0.0166,-0.0152,-0.0136,-0.0162,-0.0154,-0.0146,-0.0227,-0.0227,-0.0227,-0.0228,0,0.047,0.0502,0.0554,0.0648,0.0718,0.0802,0.0875,0.0912,0.0947,0.0954,0.0901,0.0759,0.0595,0.0375,0.0175,-0.0005,-0.0113,-0.0181,-0.0179,-0.0167,-0.0146,-0.0168,-0.0159,-0.0232,-0.0232,-0.0231,-0.0231,0,0.0481,0.052,0.0589,0.0673,0.0763,0.0846,0.0893,0.0933,0.0972,0.0966,0.0942,0.077,0.0673,0.0398,0.0214,0.0033,-0.0014,-0.0065,-0.007,-0.0067,0.0004,0.0055,0.0,0,0,0,0,0,0.0486,0.0529,0.0607,0.0699,0.0791,0.0848,0.094,0.0978,0.1015,0.0985,0.0968,0.0813,0.0539,0.0422,0.0235,0.0176,-0.0053,-0.005,-0.0117,-0.0258,-0.0253,-0.0198,0,0,0,0,0,0,0.0488,0.0555,0.0599,0.0704,0.0771,0.0874,0.0939,0.0969,0.0955,0.096,0.0817,0.0759,0.0491,0.0639,0.0226,0.0171,0.0103,-0.0174,-0.0178,-0.0261,-0.0256,-0.0252,-0.0193,0,0,0,0,0]}]]